Location: Arroyo de Valdeoliva
(40.1604°N, 4.9878°W)
Time: 17:12:15
(UTC+00:00)

Cosmos 1937 Rocket - Pass Details

Date: 11 December 2025
Orbit: 743 x 775 km, 74.0° (Epoch: 15 January)

Event Time Altitude Azimuth Distance (km) Brightness Sun altitude
Rises 18:38:35 0° 188° (S) 3,204 7.0 -19.2°
Reaches altitude 10° 18:40:58 10° 185° (S) 2,278 6.2 -19.7°
Maximum altitude 18:46:03 62° 105° (ESE) 847 3.4 -20.6°
Enters shadow 18:47:43 40° 44° (NE) 1,093 3.9 -20.9°
